This is the latest recevied weather packets stored in our database for station/object KN6ZYR. If no packets are shown the sender has not sent any weather packets the latest 10 day(s).
| Time | Temp. | Humidity | Pressure | Rain* | Wind** | Luminosity | Snow |
|---|---|---|---|---|---|---|---|
| 1778057766 | 11.11° C | 71% | 1020.7 hPa | 0 mm | - | 0 W/m² | - |
| 1778057462 | 11.11° C | 70% | 1020.7 hPa | 0 mm | - | 0 W/m² | - |
| 1778057159 | 11.67° C | 70% | 1020.9 hPa | 0 mm | - | 0 W/m² | - |
| 1778056855 | 11.67° C | 67% | 1020.6 hPa | 0 mm | - | 0 W/m² | - |
| 1778056552 | 11.67° C | 66% | 1020.9 hPa | 0 mm | - | 0 W/m² | - |
| 1778056250 | 11.67° C | 67% | 1020.6 hPa | 0 mm | - | 0 W/m² | - |
| 1778055946 | 11.67° C | 69% | 1020.7 hPa | 0 mm | - | 0 W/m² | - |
| 1778055642 | 11.67° C | 68% | 1020.6 hPa | 0 mm | - | 0 W/m² | - |
| 1778055341 | 11.67° C | 66% | 1020.5 hPa | 0 mm | - | 0 W/m² | - |
| 1778055037 | 12.22° C | 66% | 1020.5 hPa | 0 mm | - | 0 W/m² | - |
| 1778054735 | 12.78° C | 58% | 1020.6 hPa | 0 mm | - | 0 W/m² | - |
| 1778054432 | 12.78° C | 58% | 1020.5 hPa | 0 mm | - | 0 W/m² | - |
| 1778054130 | 13.33° C | 56% | 1020.5 hPa | 0 mm | - | 0 W/m² | - |
| 1778053826 | 12.78° C | 59% | 1020.5 hPa | 0 mm | - | 0 W/m² | - |
| 1778053524 | 12.78° C | 61% | 1020.6 hPa | 0 mm | - | 0 W/m² | - |
| 1778053221 | 12.78° C | 61% | 1020.8 hPa | 0 mm | - | 0 W/m² | - |
| 1778052919 | 12.22° C | 61% | 1020.7 hPa | 0 mm | - | 0 W/m² | - |
| 1778052616 | 12.22° C | 66% | 1020.6 hPa | 0 mm | - | 0 W/m² | - |
| 1778052313 | 12.22° C | 66% | 1020.6 hPa | 0 mm | - | 0 W/m² | - |
| 1778052010 | 12.22° C | 67% | 1020.6 hPa | 0 mm | - | 0 W/m² | - |
| 1778051708 | 12.22° C | 67% | 1020.4 hPa | 0 mm | - | 0 W/m² | - |
| 1778051405 | 11.67° C | 69% | 1020.1 hPa | 0 mm | - | 0 W/m² | - |
| 1778051103 | 11.67° C | 71% | 1020.4 hPa | 0 mm | - | 0 W/m² | - |
| 1778050799 | 11.67° C | 71% | 1020.5 hPa | 0 mm | - | 0 W/m² | - |
| 1778050497 | 12.22° C | 68% | 1020.4 hPa | 0 mm | - | 0 W/m² | - |
* Rain latest hour (hover to see other rain measurements)
** Current wind speed in m/s (hover to see current wind gust speed)